TimeCDT,TemperatureF,Dew PointF,Humidity,Sea Level PressureIn,VisibilityMPH,Wind Direction,Wind SpeedMPH,Gust SpeedMPH,PrecipitationIn,Events,Conditions,WindDirDegrees,DateUTC
12:12 AM,50.0,19.4,30,29.86,10.0,South,15.0,-,N/A,,Overcast,170,2012-10-13 05:12:00
12:53 AM,50.0,21.2,32,29.84,10.0,South,15.0,-,N/A,,Overcast,180,2012-10-13 05:53:00
1:12 AM,50.0,21.2,32,29.83,10.0,South,16.1,20.7,N/A,,Overcast,180,2012-10-13 06:12:00
1:33 AM,50.0,21.2,32,29.82,10.0,South,13.8,21.9,N/A,,Overcast,170,2012-10-13 06:33:00
1:53 AM,50.0,21.2,32,29.82,10.0,South,12.7,-,N/A,,Overcast,170,2012-10-13 06:53:00
2:12 AM,50.0,23.0,35,29.81,10.0,South,12.7,16.1,N/A,,Overcast,170,2012-10-13 07:12:00
2:33 AM,50.0,23.0,35,29.80,10.0,South,12.7,17.3,N/A,,Overcast,180,2012-10-13 07:33:00
2:53 AM,50.0,23.0,35,29.80,10.0,South,10.4,-,N/A,,Overcast,180,2012-10-13 07:53:00
3:12 AM,50.0,23.0,35,29.79,10.0,South,10.4,-,N/A,,Overcast,170,2012-10-13 08:12:00
3:33 AM,50.0,26.6,40,29.79,10.0,South,6.9,-,N/A,,Overcast,190,2012-10-13 08:33:00
3:53 AM,50.0,28.4,43,29.78,10.0,South,8.1,-,N/A,,Overcast,180,2012-10-13 08:53:00
4:13 AM,50.0,30.2,47,29.76,10.0,South,6.9,-,N/A,,Overcast,170,2012-10-13 09:13:00
4:32 AM,48.2,30.2,50,29.75,10.0,South,8.1,-,N/A,,Mostly Cloudy,170,2012-10-13 09:32:00
4:53 AM,50.0,35.6,58,29.74,10.0,South,10.4,-,N/A,,Mostly Cloudy,180,2012-10-13 09:53:00
5:13 AM,48.2,37.4,66,29.73,10.0,South,10.4,-,N/A,,Overcast,190,2012-10-13 10:13:00
5:32 AM,46.4,39.2,76,29.73,10.0,South,11.5,-,N/A,,Scattered Clouds,180,2012-10-13 10:32:00
5:53 AM,46.4,41.0,81,29.73,10.0,South,13.8,19.6,N/A,,Scattered Clouds,180,2012-10-13 10:53:00
6:13 AM,46.4,39.2,76,29.73,10.0,South,10.4,-,N/A,,Scattered Clouds,190,2012-10-13 11:13:00
6:32 AM,46.4,39.2,76,29.73,10.0,South,6.9,-,N/A,,Clear,190,2012-10-13 11:32:00
6:53 AM,44.6,39.2,81,29.73,10.0,South,8.1,-,N/A,,Clear,190,2012-10-13 11:53:00
7:13 AM,44.6,39.2,81,29.73,10.0,South,9.2,-,N/A,,Clear,180,2012-10-13 12:13:00
7:32 AM,44.6,37.4,76,29.73,10.0,South,6.9,-,N/A,,Clear,180,2012-10-13 12:32:00
7:53 AM,42.8,37.4,81,29.73,10.0,South,4.6,-,N/A,,Clear,190,2012-10-13 12:53:00
8:13 AM,42.8,37.4,81,29.72,10.0,South,4.6,-,N/A,,Clear,180,2012-10-13 13:13:00
8:53 AM,46.4,39.2,76,29.71,10.0,SSE,8.1,-,N/A,,Clear,160,2012-10-13 13:53:00
9:32 AM,50.0,39.2,66,29.71,10.0,South,9.2,-,N/A,,Clear,190,2012-10-13 14:32:00
9:53 AM,50.0,41.0,71,29.73,10.0,SSW,8.1,-,N/A,,Clear,210,2012-10-13 14:53:00
10:32 AM,51.8,41.0,67,29.71,10.0,SSW,8.1,-,N/A,,Clear,210,2012-10-13 15:32:00
10:53 AM,53.6,41.0,62,29.71,10.0,SSW,8.1,-,N/A,,Clear,200,2012-10-13 15:53:00
11:13 AM,53.6,41.0,62,29.69,10.0,SW,9.2,-,N/A,,Clear,220,2012-10-13 16:13:00
11:32 AM,53.6,41.0,62,29.70,10.0,SSW,5.8,-,N/A,,Clear,210,2012-10-13 16:32:00
11:53 AM,55.4,41.0,58,29.69,10.0,SSW,4.6,-,N/A,,Clear,200,2012-10-13 16:53:00
12:13 PM,55.4,41.0,58,29.69,10.0,South,4.6,-,N/A,,Clear,170,2012-10-13 17:13:00
12:32 PM,55.4,41.0,58,29.68,10.0,SW,8.1,-,N/A,,Clear,220,2012-10-13 17:32:00
12:53 PM,55.4,41.0,58,29.68,10.0,South,3.5,-,N/A,,Clear,180,2012-10-13 17:53:00
1:13 PM,57.2,41.0,55,29.67,10.0,SSE,6.9,-,N/A,,Clear,160,2012-10-13 18:13:00
1:32 PM,59.0,41.0,51,29.67,10.0,SSW,6.9,-,N/A,,Clear,210,2012-10-13 18:32:00
1:53 PM,59.0,41.0,51,29.66,10.0,South,5.8,-,N/A,,Clear,170,2012-10-13 18:53:00
2:12 PM,59.0,41.0,51,29.67,10.0,SSW,5.8,-,N/A,,Clear,200,2012-10-13 19:12:00
2:33 PM,60.8,41.0,48,29.66,10.0,SW,8.1,-,N/A,,Clear,230,2012-10-13 19:33:00
2:53 PM,60.8,41.0,48,29.67,10.0,SSW,6.9,-,N/A,,Clear,200,2012-10-13 19:53:00
3:13 PM,60.8,41.0,48,29.67,10.0,SW,4.6,-,N/A,,Clear,220,2012-10-13 20:13:00
3:33 PM,62.6,41.0,45,29.68,10.0,West,8.1,-,N/A,,Clear,260,2012-10-13 20:33:00
3:52 PM,62.6,41.0,45,29.68,10.0,West,6.9,-,N/A,,Clear,280,2012-10-13 20:52:00
4:13 PM,62.6,41.0,45,29.68,10.0,West,6.9,-,N/A,,Clear,260,2012-10-13 21:13:00
4:33 PM,62.6,41.0,45,29.69,10.0,NW,8.1,-,N/A,,Clear,310,2012-10-13 21:33:00
4:52 PM,62.6,41.0,45,29.69,10.0,WNW,9.2,-,N/A,,Clear,300,2012-10-13 21:52:00
5:13 PM,62.6,41.0,45,29.69,10.0,WNW,6.9,-,N/A,,Clear,300,2012-10-13 22:13:00
5:52 PM,59.0,41.0,51,29.71,10.0,NNW,9.2,-,N/A,,Clear,330,2012-10-13 22:52:00
6:13 PM,57.2,41.0,55,29.71,10.0,NW,8.1,-,N/A,,Clear,320,2012-10-13 23:13:00
6:32 PM,55.4,39.2,54,29.72,10.0,NW,6.9,-,N/A,,Clear,320,2012-10-13 23:32:00
7:33 PM,51.8,39.2,62,29.75,10.0,NW,9.2,-,N/A,,Clear,320,2012-10-14 00:33:00
7:53 PM,50.0,37.4,62,29.76,10.0,NNW,9.2,-,N/A,,Clear,330,2012-10-14 00:53:00
8:53 PM,46.4,37.4,71,29.78,10.0,NNW,10.4,-,N/A,,Clear,330,2012-10-14 01:53:00
9:13 PM,44.6,35.6,71,29.78,10.0,NNW,8.1,-,N/A,,Clear,330,2012-10-14 02:13:00
9:32 PM,44.6,35.6,71,29.79,10.0,NNW,11.5,-,N/A,,Clear,330,2012-10-14 02:32:00
9:53 PM,44.6,35.6,71,29.80,10.0,NNW,8.1,-,N/A,,Clear,330,2012-10-14 02:53:00
10:13 PM,42.8,35.6,76,29.81,10.0,NNW,10.4,-,N/A,,Clear,330,2012-10-14 03:13:00
11:13 PM,41.0,33.8,76,29.81,10.0,NNW,6.9,-,N/A,,Clear,330,2012-10-14 04:13:00
11:32 PM,41.0,33.8,76,29.81,10.0,NNW,4.6,-,N/A,,Clear,330,2012-10-14 04:32:00